Wind_Speed
15 13 13 12 15 21 19 12 9 12 16 18 17 16 26 31 39 44 45 48 51 50 56 58 51 51 44 49 30 15 23 26 37 41 50 54 57 55 47 44 45 47 48 45
9 15 11 22 17 20 18 14 11 14 12 17 24 20 28 32 34 37 42 46 50 49 50 57 50 55 55 47 47 32 1 15 15 38 42 55 48 56 51 45 45 43 48 46
7 5 3 18 16 17 13 13 11 12 9 17 17 19 22 29 32 33 37 39 46 51 49 56 51 54 51 48 50 47 30 10 4 25 36 40 35 43 50 51 45 48 48 49
7 7 11 7 13 8 10 14 13 9 8 12 20 26 20 28 27 30 36 34 40 47 49 49 52 49 49 52 49 53 47 33 10 12 22 33 41 35 45 50 48 48 48 48
5 4 5 15 17 16 6 12 17 14 13 15 21 22 21 25 29 27 29 33 32 36 41 46 45 46 50 52 51 51 56 48 34 18 6 12 29 30 30 47 49 46 49 47
6 5 5 9 16 22 5 1 25 25 20 20 23 11 12 28 27 30 29 32 31 34 34 38 43 41 55 56 53 56 49 51 44 30 20 11 15 28 33 32 41 44 44 46
8 5 2 12 18 19 13 10 26 27 25 24 15 20 29 29 27 26 28 31 31 29 33 32 35 44 46 55 53 46 42 40 47 43 33 22 10 20 27 33 42 43 44 43
6 6 3 17 11 9 11 18 21 25 27 26 27 28 30 33 33 28 27 28 29 30 33 33 34 33 37 42 40 41 44 41 43 45 45 34 17 16 10 19 31 36 38 40
3 5 6 11 8 14 17 20 21 24 25 26 28 29 31 31 32 32 30 27 27 26 31 31 28 30 31 33 34 37 35 43 40 38 40 44 38 33 22 13 9 17 24 33
9 3 7 10 11 16 19 21 24 25 26 27 29 31 30 30 31 32 31 29 25 30 28 28 28 27 27 26 32 35 35 36 34 35 42 34 41 39 39 33 23 13 7 10
11 8 12 12 17 19 20 23 24 25 27 28 30 30 30 31 31 31 30 30 28 26 25 25 26 26 26 25 24 25 25 22 31 31 25 35 29 34 36 38 34 30 17 9
9 17 14 17 18 20 22 25 26 27 29 30 29 31 32 31 32 32 31 29 27 25 24 25 24 24 23 23 22 22 23 23 22 27 28 25 26 27 26 28 31 36 30 26
17 14 14 17 20 22 25 27 28 28 28 30 30 31 30 32 30 32 29 28 26 27 27 25 23 20 20 20 21 21 22 19 18 14 20 21 18 23 24 21 25 27 29 33
21 12 15 15 21 25 27 28 28 28 27 28 31 31 31 31 32 28 26 25 25 26 25 24 22 21 19 21 21 19 20 20 17 20 12 13 13 11 13 18 16 21 19 24
17 13 13 19 23 27 29 30 29 28 28 28 29 31 31 32 30 26 25 24 23 23 23 25 25 23 21 21 18 19 18 19 18 19 17 12 12 12 7 9 12 14 14 16
17 15 18 22 27 29 28 30 29 29 29 28 28 29 31 27 23 24 24 24 26 27 25 24 24 23 23 22 21 19 19 18 15 16 18 15 12 12 10 13 6 5 7 10
16 21 24 25 25 27 29 28 29 30 31 29 28 26 24 21 25 24 22 23 26 26 27 25 23 21 19 17 20 20 20 18 16 15 14 15 12 12 11 13 9 5 6 5
17 20 20 23 26 27 27 28 30 31 30 30 28 24 19 22 20 24 30 28 25 25 21 21 21 24 25 19 20 19 18 17 16 17 18 17 15 13 13 14 12 7 6 6
18 20 21 22 24 26 28 30 30 30 30 28 26 26 22 21 25 22 23 23 24 24 25 22 21 20 20 20 20 20 18 17 17 16 17 18 18 16 15 15 15 12 10 11
18 19 20 23 23 26 29 29 29 28 26 26 26 23 29 30 27 26 21 19 18 21 18 19 20 17 17 16 16 18 16 17 18 18 19 18 19 21 21 18 16 18 16 14
18 20 22 24 26 27 27 25 24 23 22 23 26 30 29 28 26 27 23 21 17 17 21 22 19 21 20 16 20 15 17 18 16 17 17 18 18 19 21 22 23 21 19 22
18 20 22 26 26 25 22 21 19 21 23 24 26 25 27 25 24 22 20 20 26 28 29 26 21 22 26 25 20 17 19 20 18 18 17 18 19 20 23 24 25 24 25 27
18 19 23 24 21 20 18 17 19 20 20 21 22 22 22 23 22 24 26 26 26 28 24 20 21 21 20 17 16 15 15 17 17 16 18 19 20 21 22 22 23 23 22 22
17 20 20 17 16 16 17 18 18 17 17 17 18 19 21 23 21 21 22 23 25 26 22 22 23 17 15 15 9 13 14 12 12 13 13 14 15 16 18 17 18 19 19 19
17 17 13 13 15 15 15 16 16 15 16 16 16 17 18 18 19 21 22 23 24 23 23 24 25 21 19 17 15 14 12 6 8 9 10 11 12 13 12 13 12 13 15 15
15 10 10 11 11 12 13 14 13 13 15 14 15 16 18 17 19 20 20 22 23 24 24 25 28 26 26 26 24 22 21 19 18 16 15 15 15 16 17 15 14 12 12 12
10 9 9 9 8 10 11 10 11 12 12 13 14 14 16 17 18 19 21 21 21 24 24 26 26 29 26 26 26 25 24 23 22 21 20 19 18 18 18 17 17 16 16 15
Wind_Direction
311 304 18 45 57 60 54 51 38 33 34 4 3 16 6 360 3 2 357 0 357 352 356 348 354 352 3 12 10 16 241 238 216 220 224 220 218 207 203 207 207 208 207 209
39 85 67 38 32 64 56 38 45 36 35 9 1 11 8 3 1 359 355 356 357 352 357 357 351 1 6 7 19 19 4 220 216 224 213 210 212 211 206 204 206 208 210 207
3 99 272 35 19 39 37 55 50 34 16 8 357 6 9 355 358 0 352 354 355 353 348 358 351 9 9 9 17 25 31 35 303 186 229 211 207 213 207 205 204 207 211 210
335 130 52 23 33 4 47 47 43 43 20 24 4 345 7 355 349 352 355 348 355 353 352 351 354 4 9 15 18 22 27 36 43 168 234 232 209 205 212 206 205 207 209 213
349 358 163 30 16 354 62 26 14 15 10 12 357 343 350 350 350 344 350 346 350 349 351 353 356 358 13 15 17 23 27 30 33 34 155 187 198 208 211 212 211 213 213 210
336 338 33 2 5 352 305 29 359 356 355 358 349 342 334 336 343 339 339 346 344 351 351 352 3 357 5 9 17 16 21 27 31 36 38 82 169 193 205 218 219 216 213 212
347 12 113 4 9 7 27 335 346 353 352 352 343 329 324 329 331 333 334 337 341 344 349 352 352 3 1 7 10 8 16 29 29 35 45 49 89 192 217 211 218 219 218 214
334 356 4 354 358 28 357 353 341 347 347 343 337 336 335 334 333 334 331 333 336 339 343 349 359 354 7 1 1 7 17 14 27 23 35 45 48 70 133 183 199 210 220 225
297 296 310 348 6 0 350 350 343 340 337 336 335 334 332 333 334 335 335 334 329 334 335 341 349 356 358 0 3 6 7 20 15 19 27 31 48 50 68 78 137 171 189 199
301 306 321 346 356 348 345 338 338 337 336 334 332 332 333 333 334 333 334 333 341 334 332 333 339 346 349 353 2 4 11 6 10 10 28 24 35 40 49 55 56 74 110 173
285 322 325 335 344 337 332 332 335 336 335 332 331 333 333 336 334 332 332 332 331 329 328 327 329 333 339 346 354 360 3 7 2 22 4 24 26 31 38 40 38 54 49 73
289 328 323 322 324 324 329 332 333 333 330 330 331 334 337 337 333 334 331 329 330 331 330 331 324 321 328 335 341 350 351 7 7 7 18 15 24 27 31 36 33 40 51 57
290 291 295 303 314 324 327 327 331 332 329 330 332 334 335 331 332 331 330 330 328 329 327 324 322 320 320 324 340 337 339 345 359 356 7 16 358 27 31 27 31 38 32 37
302 291 295 315 316 324 325 330 330 329 330 331 330 332 331 331 331 329 328 328 325 324 325 326 329 331 332 324 321 327 326 325 347 340 354 353 356 356 358 23 25 32 35 41
316 306 307 314 321 321 323 328 328 330 330 333 333 332 331 331 329 329 328 328 328 325 325 326 327 328 329 328 322 318 318 322 327 339 337 342 359 353 335 351 13 35 26 31
321 333 326 329 323 328 325 324 328 328 331 335 334 330 327 327 327 326 327 328 329 325 322 321 324 323 324 325 327 326 318 314 316 323 315 327 334 336 3 6 345 342 5 39
337 336 329 323 319 322 325 324 325 329 331 332 330 330 328 331 325 325 326 326 325 321 320 320 319 319 318 321 320 320 317 313 303 307 309 314 318 313 327 334 341 328 296 276
321 317 322 322 321 322 323 327 329 328 326 327 328 331 334 328 328 327 320 319 321 324 325 324 324 318 320 320 313 311 312 313 310 306 304 306 305 307 302 290 297 310 323 308
320 321 321 322 325 328 327 326 326 326 327 328 331 330 330 327 328 325 327 325 326 322 325 325 321 326 320 314 313 310 308 306 302 300 300 306 305 308 306 295 291 306 311 305
326 325 327 325 326 325 325 325 325 327 329 329 329 328 327 330 333 329 336 322 323 319 332 326 330 330 320 311 297 300 301 300 303 306 308 307 302 299 290 297 301 286 287 297
329 327 328 328 327 328 327 327 330 332 332 332 329 329 331 336 339 337 333 331 331 332 329 320 315 321 312 312 306 310 302 295 295 299 304 309 309 305 301 300 293 284 287 280
326 327 328 329 328 328 331 333 334 335 334 331 333 338 340 338 337 338 340 340 334 331 325 326 324 304 296 292 300 304 297 296 292 293 290 291 293 296 296 298 297 296 290 279
326 328 329 330 331 332 335 338 339 339 338 342 342 344 344 343 345 345 344 340 337 334 343 345 331 333 338 316 295 297 294 297 291 290 289 292 299 304 306 307 306 303 297 286
328 329 331 333 335 336 341 343 345 346 348 349 350 351 350 349 351 350 350 346 351 356 2 353 344 344 10 17 336 303 293 296 300 302 304 304 306 310 310 306 304 305 305 297
328 331 335 341 340 340 341 346 347 352 354 357 0 0 1 1 1 358 0 5 3 11 11 7 14 19 15 9 6 17 22 3 332 328 324 323 327 321 311 306 307 308 303 301
330 331 338 341 340 342 344 345 355 359 1 6 10 10 9 13 12 11 13 14 14 17 20 20 24 30 30 30 29 26 19 11 4 355 341 333 326 320 317 322 321 318 309 298
324 331 344 339 344 346 342 3 11 7 14 17 15 16 14 16 16 17 15 16 20 19 22 20 19 20 25 26 26 25 23 21 19 16 13 7 359 350 342 330 318 310 304 295
Height
1524 1516 1520 1518 1513 1512 1515 1520 1519 1526 1525 1525 1518 1514 1511 1505 1496 1486 1480 1469 1464 1455 1445 1436 1422 1418 1398 1386 1368 1363 1351 1364 1371 1373 1376 1385 1395 1400 1407 1413 1422 1430 1438 1443
1518 1531 1522 1523 1524 1519 1522 1525 1523 1525 1528 1528 1522 1518 1511 1505 1499 1494 1485 1477 1469 1463 1455 1440 1433 1414 1399 1389 1375 1360 1355 1359 1364 1371 1376 1366 1384 1391 1397 1404 1412 1423 1429 1434
1520 1531 1527 1527 1534 1528 1531 1529 1530 1531 1533 1529 1522 1517 1512 1507 1502 1497 1490 1483 1474 1467 1455 1435 1438 1419 1407 1397 1387 1377 1367 1364 1366 1366 1372 1347 1368 1386 1388 1396 1401 1411 1421 1425
1519 1523 1538 1534 1529 1531 1536 1528 1530 1531 1530 1528 1524 1519 1514 1511 1504 1497 1492 1485 1477 1467 1459 1452 1431 1428 1416 1398 1390 1385 1378 1369 1364 1359 1365 1370 1368 1371 1383 1392 1397 1402 1410 1419
1526 1525 1534 1528 1528 1530 1532 1536 1529 1527 1526 1524 1521 1518 1514 1509 1504 1499 1493 1488 1481 1478 1465 1453 1443 1433 1416 1404 1400 1387 1380 1377 1371 1367 1363 1354 1362 1369 1378 1388 1393 1397 1403 1410
1527 1534 1539 1536 1532 1531 1527 1531 1529 1526 1524 1521 1517 1512 1509 1505 1501 1497 1492 1486 1479 1472 1469 1462 1446 1436 1412 1399 1395 1387 1391 1386 1384 1372 1367 1361 1364 1370 1373 1383 1389 1394 1398 1404
1528 1534 1546 1539 1535 1532 1536 1544 1531 1528 1526 1522 1520 1516 1509 1503 1498 1495 1489 1483 1479 1474 1465 1459 1454 1434 1419 1403 1397 1405 1401 1397 1391 1384 1374 1368 1366 1366 1370 1377 1381 1387 1392 1398
1537 1539 1544 1538 1537 1541 1541 1537 1533 1529 1526 1522 1518 1513 1508 1502 1495 1490 1486 1480 1476 1470 1463 1457 1447 1442 1437 1431 1424 1408 1395 1400 1388 1387 1380 1376 1373 1365 1364 1370 1373 1379 1386 1392
1547 1541 1538 1537 1537 1539 1538 1535 1532 1529 1525 1520 1516 1511 1506 1500 1494 1488 1484 1479 1473 1469 1462 1457 1455 1449 1442 1434 1432 1422 1416 1393 1393 1406 1388 1382 1377 1367 1363 1372 1375 1377 1382 1386
1540 1536 1535 1536 1538 1538 1536 1534 1531 1527 1523 1519 1513 1509 1503 1498 1493 1488 1482 1477 1474 1465 1462 1459 1456 1451 1447 1443 1430 1421 1417 1415 1415 1404 1395 1400 1387 1386 1383 1380 1384 1383 1382 1385
1536 1535 1536 1535 1536 1536 1535 1532 1529 1525 1521 1516 1512 1507 1501 1495 1490 1486 1482 1477 1472 1469 1466 1460 1456 1451 1446 1443 1439 1438 1434 1434 1424 1409 1417 1407 1404 1402 1395 1392 1396 1388 1391 1388
1532 1533 1535 1536 1536 1535 1532 1529 1526 1522 1517 1512 1509 1504 1499 1495 1489 1484 1480 1476 1471 1468 1465 1461 1456 1452 1449 1446 1442 1439 1436 1428 1426 1421 1416 1408 1418 1403 1402 1406 1402 1394 1396 1394
1533 1533 1533 1534 1533 1532 1529 1527 1523 1520 1516 1510 1506 1501 1498 1493 1489 1484 1479 1474 1469 1466 1463 1461 1458 1454 1449 1447 1442 1438 1438 1432 1432 1431 1421 1418 1422 1413 1413 1411 1407 1406 1406 1399
1529 1529 1530 1530 1529 1528 1526 1523 1520 1517 1514 1509 1504 1500 1496 1492 1487 1483 1478 1473 1469 1465 1461 1458 1454 1451 1448 1444 1440 1441 1438 1437 1428 1427 1429 1429 1422 1419 1418 1415 1415 1411 1415 1402
1528 1527 1528 1528 1526 1524 1522 1519 1516 1513 1510 1507 1502 1497 1492 1487 1482 1479 1475 1472 1469 1465 1459 1453 1450 1449 1445 1443 1442 1438 1435 1433 1430 1426 1425 1424 1423 1422 1419 1416 1417 1411 1415 1415
1528 1527 1527 1526 1524 1521 1518 1515 1511 1508 1506 1504 1501 1496 1489 1485 1482 1477 1473 1469 1464 1460 1457 1455 1449 1445 1442 1440 1436 1433 1432 1428 1425 1425 1426 1425 1423 1421 1417 1412 1413 1416 1417 1414
1528 1527 1525 1524 1521 1517 1514 1511 1507 1503 1500 1499 1497 1494 1490 1484 1479 1475 1470 1466 1461 1455 1450 1446 1444 1443 1440 1438 1436 1433 1433 1430 1428 1426 1427 1426 1424 1421 1418 1416 1421 1420 1419 1419
1528 1526 1523 1520 1517 1513 1510 1506 1503 1499 1496 1493 1490 1488 1486 1483 1478 1471 1466 1462 1457 1452 1451 1446 1443 1439 1436 1435 1434 1433 1431 1426 1425 1425 1423 1422 1423 1421 1421 1422 1422 1422 1420 1418
1524 1522 1520 1517 1514 1510 1506 1502 1498 1495 1491 1488 1484 1482 1480 1479 1476 1470 1464 1458 1453 1450 1447 1443 1440 1438 1434 1431 1432 1430 1425 1424 1424 1422 1419 1417 1417 1416 1418 1420 1418 1414 1413 1415
1520 1519 1516 1513 1510 1507 1502 1499 1495 1491 1487 1483 1480 1476 1473 1471 1469 1466 1463 1460 1458 1454 1448 1442 1439 1436 1435 1433 1430 1426 1424 1422 1417 1415 1415 1414 1414 1411 1413 1413 1411 1410 1411 1413
1517 1515 1513 1510 1506 1503 1500 1496 1491 1488 1484 1480 1476 1472 1469 1466 1462 1460 1458 1456 1455 1449 1445 1442 1439 1434 1429 1425 1423 1422 1421 1420 1418 1415 1414 1411 1410 1410 1410 1407 1406 1405 1407 1409
1514 1512 1509 1506 1503 1499 1496 1493 1490 1486 1482 1478 1474 1469 1465 1462 1459 1456 1455 1451 1445 1441 1437 1435 1432 1427 1422 1419 1418 1418 1416 1414 1413 1413 1411 1412 1411 1409 1408 1405 1402 1400 1401 1402
1512 1509 1506 1502 1500 1497 1494 1491 1488 1485 1481 1477 1473 1469 1465 1461 1457 1453 1449 1447 1444 1440 1436 1433 1429 1425 1421 1416 1414 1414 1414 1412 1412 1412 1410 1409 1407 1404 1402 1398 1395 1396 1395 1395
1508 1506 1502 1499 1497 1495 1492 1489 1486 1483 1480 1477 1473 1469 1465 1460 1458 1455 1451 1447 1442 1437 1434 1430 1426 1423 1419 1416 1413 1412 1411 1409 1407 1406 1405 1403 1402 1400 1398 1396 1396 1394 1392 1389
1504 1502 1499 1497 1495 1493 1490 1487 1485 1482 1480 1476 1473 1470 1467 1464 1460 1456 1451 1447 1443 1438 1433 1428 1423 1419 1416 1413 1410 1408 1405 1403 1403 1402 1401 1399 1397 1395 1394 1392 1391 1390 1390 1386
1501 1499 1497 1495 1493 1492 1489 1486 1484 1482 1479 1477 1475 1472 1469 1466 1462 1458 1454 1449 1445 1440 1436 1431 1426 1422 1418 1414 1410 1407 1405 1402 1400 1398 1395 1392 1391 1390 1389 1387 1385 1384 1382 1378
1498 1496 1494 1493 1491 1490 1487 1486 1484 1482 1480 1478 1477 1474 1472 1468 1465 1462 1457 1453 1448 1444 1440 1436 1431 1427 1422 1418 1414 1410 1407 1404 1401 1398 1396 1393 1390 1386 1383 1380 1379 1377 1372 1373